Seattle, WA
on Thursday, February 7, 2013

Thursday
Previous Day Next Day
Daily Summary
 ActualAverageRecord
Temperature
Mean Temperature °F 43°F  
Max Temperature 49°F 49°F 66°F (1963)
Min Temperature 38°F 37°F 20°F (1989)
Degree Days
Heating Degree Days 21 22  
Month to date heating degree days 139 154  
Since 1 July heating degree days 2713 2803  
Cooling Degree Days 0 0  
Month to date cooling degree days 0 0  
Year to date cooling degree days 0 0  
Moisture
Dew Point 35°F   
Average Humidity 68    
Maximum Humidity 85    
Minimum Humidity 50    
Precipitation
Precipitation 0.05 in 0.14 in 2.58 in (1955)
Month to date precipitation 0.32 0.94  
Year to date precipitation 4.48 6.51  
Snow
Snow 0.00 in in T in (1994)
Month to date snowfall 0.0  
Since 1 July snowfall 0.6  
Snow Depth 0.00 in   
Wind
Wind Speed 9 mph   
Max Wind Speed 21 mph   
Max Gust Speed 31 mph   
Visibility 10 miles   
Events Rain   

Key: T is trace of precipitation, MM is missing value
Source: NWS Daily Summary
Time(PST)TemperatureDew PointHumidity Pressure Visibility Wind DirectionWind SpeedGust SpeedPrecipitationEvents Conditions
12:53 AM 46.9°F 37.9°F 71% 29.84 in 10.0 miles WSW 17.3 mph 31.1 mph 0.01 in Rain Light Rain
1:13 AM 44.6°F 39.2°F 81% 29.84 in 10.0 miles WSW 17.3 mph 27.6 mph 0.02 in Rain Light Rain
1:43 AM 44.6°F 39.2°F 81% 29.84 in 10.0 miles South 15.0 mph 25.3 mph 0.04 in Rain Light Rain
1:53 AM 44.1°F 39.0°F 82% 29.87 in 10.0 miles South 16.1 mph - 0.04 in   Overcast
2:27 AM 42.8°F 37.4°F 81% 29.88 in 10.0 miles South 12.7 mph - N/A   Overcast
2:53 AM 43.0°F 37.0°F 80% 29.91 in 10.0 miles South 10.4 mph 21.9 mph N/A   Overcast
3:53 AM 44.1°F 35.1°F 71% 29.93 in 10.0 miles South 18.4 mph 24.2 mph 0.00 in   Overcast
4:53 AM 43.0°F 34.0°F 71% 29.95 in 10.0 miles South 15.0 mph 21.9 mph N/A   Mostly Cloudy
5:39 AM 42.8°F 35.6°F 76% 29.94 in 10.0 miles SSW 17.3 mph 23.0 mph N/A   Mostly Cloudy
5:53 AM 43.0°F 35.1°F 74% 29.97 in 10.0 miles SSW 13.8 mph 21.9 mph N/A   Mostly Cloudy
6:53 AM 42.1°F 35.1°F 76% 29.98 in 10.0 miles South 9.2 mph - 0.00 in   Overcast
7:48 AM 42.8°F 35.6°F 76% 29.97 in 10.0 miles SSW 17.3 mph - 0.00 in   Mostly Cloudy
7:53 AM 42.1°F 35.1°F 76% 30.00 in 10.0 miles SSW 13.8 mph - 0.00 in   Mostly Cloudy
8:53 AM 42.1°F 36.0°F 79% 30.03 in 10.0 miles SSW 11.5 mph - N/A   Mostly Cloudy
9:05 AM 42.8°F 35.6°F 76% 30.01 in 10.0 miles SSW 10.4 mph - N/A   Mostly Cloudy
9:43 AM 42.8°F 35.6°F 76% 30.02 in 10.0 miles SSW 10.4 mph - N/A   Mostly Cloudy
9:53 AM 44.1°F 37.0°F 76% 30.04 in 10.0 miles South 9.2 mph - N/A   Mostly Cloudy
10:53 AM 46.0°F 36.0°F 68% 30.06 in 10.0 miles South 6.9 mph - N/A   Mostly Cloudy
11:53 AM 46.9°F 34.0°F 61% 30.06 in 10.0 miles SSW 6.9 mph - N/A   Mostly Cloudy
12:53 PM 48.9°F 34.0°F 56% 30.05 in 10.0 miles South 6.9 mph - N/A   Scattered Clouds
1:53 PM 48.9°F 33.1°F 54% 30.05 in 10.0 miles Variable 4.6 mph - N/A   Scattered Clouds
2:53 PM 48.9°F 33.1°F 54% 30.06 in 10.0 miles West 6.9 mph - N/A   Scattered Clouds
3:53 PM 48.9°F 30.9°F 50% 30.06 in 10.0 miles Calm Calm - N/A   Scattered Clouds
4:53 PM 46.9°F 32.0°F 56% 30.08 in 10.0 miles West 3.5 mph - N/A   Scattered Clouds
5:53 PM 44.1°F 30.0°F 58% 30.10 in 10.0 miles North 3.5 mph - N/A   Partly Cloudy
6:53 PM 39.9°F 30.9°F 70% 30.12 in 10.0 miles North 6.9 mph - N/A   Partly Cloudy
7:53 PM 41.0°F 33.1°F 73% 30.14 in 10.0 miles North 6.9 mph - N/A   Clear
8:53 PM 39.9°F 35.1°F 83% 30.16 in 10.0 miles North 8.1 mph - N/A   Clear
9:53 PM 37.9°F 34.0°F 86% 30.18 in 10.0 miles North 6.9 mph - N/A   Clear
10:53 PM 39.0°F 35.1°F 86% 30.19 in 10.0 miles North 6.9 mph - N/A   Clear
11:53 PM 39.9°F 35.1°F 83% 30.21 in 10.0 miles NNE 8.1 mph - N/A   Partly Cloudy
Moon Phase
Feb. 07 Feb. 10 Feb. 17 Feb. 25 Mar. 04
Sunrise:07:26 AM (PST) Moon Rise:05:17 AM (PST)2/7
Sunset:05:20 PM (PST) Moon Set:02:46 PM (PST)2/7

Copyright © 2014 The Weather Underground, Inc.